Regional Weather Roundup
Issued by NWS

Home | Current Version | Previous Version | Text Only | Print | Product List | Glossary Off
Versions: 1 2 3 4 5 6 7 8 9 10 11 12 13 14 15 16 17 18 19 20 21 22 23 24 25 26 27 28 29 30 31 32 33 34 35 36 37 38 39 40 41 42 43 44 45 46 47 48 49 50

000
ASUS43 KIND 170309
RWRIN

WEATHER ROUNDUP FOR INDIANA
NATIONAL WEATHER SERVICE INDIANAPOLIS IN
1100 PM EDT WED AUG 16 2017

NOTE: "FAIR" INDICATES FEW OR NO CLOUDS BELOW 12,000 FEET WITH NO
SIGNIFICANT WEATHER AND/OR OBSTRUCTIONS TO VISIBILITY.

* - STATION DOES NOT REPORT WEATHER SUCH AS PRECIPITATION OR FOG.

+ - STATION NOT QUALITY CONTROLLED BY THE NATIONAL WEATHER SERVICE.
    USE DATA WITH CAUTION...ESPECIALLY DEWPOINT AND RELATIVE
    HUMIDITY OBSERVATIONS.

INZ001>003-010>013-019-020-170400-
NORTHWEST INDIANA

CITY           SKY/WX    TMP DP  RH WIND       PRES   REMARKS
GARY /AIRPORT/ MOCLDY    81  72  74 S5        29.89F
KNOX *+        CLOUDY    77  72  83 S5        29.92S
LA PORTE +     CLOUDY    77  70  79 S3        29.93S
MICHIGAN CITY+ CLOUDY    79  68  69 S3        29.92S
MONTICELLO +   CLOUDY    79  73  81 S7        29.92R
RENSSELAER +   MOCLDY    77  68  73 SE6       29.91S
VALPARAISO     CLOUDY    79  73  82 SE6       29.91F

$$

LMZ046-743>745-170400-
SOUTHERN LAKE MICHIGAN

STATION/POSITION TIME  TEMP    WIND        PRES    WAVE
                       AIR SEA DIR/SP/G            HT
                 (UTC) (F)     (DEG/KT/KT) (MB)    (FT)
BURNS HARBOR     0240   81     180/  9/ 15 1012.5F
MICHIGAN CITY    0240   80     160/  6/  8   N/A
5NW MICH CITY    0300   78 75  160/  6/  8   N/A     1

$$

INZ004-005-014>016-021>024-170400-
NORTH CENTRAL INDIANA

CITY           SKY/WX    TMP DP  RH WIND       PRES   REMARKS
GOSHEN         PTCLDY    79  67  66 SE7       29.94R
LOGANSPORT +   CLOUDY    75  70  83 SE3       29.94S
PERU/GRISSOM   CLOUDY    78  72  83 S7        29.93S
ROCHESTER +    CLOUDY    81  72  74 S3        29.94S
SOUTH BEND     CLOUDY    78  71  79 S7        29.93S
WARSAW +       MOCLDY    77  68  73 CALM      29.94S

$$

INZ006>009-017-018-025>027-170400-
NORTHEAST INDIANA

CITY           SKY/WX    TMP DP  RH WIND       PRES   REMARKS
AUBURN +       CLOUDY    77  66  69 E3        29.97S
FORT WAYNE     CLOUDY    77  68  73 SE5       29.96S
HUNTINGTON +   PTCLDY    77  69  76 CALM      29.95S
KENDALLVILLE + CLOUDY    75  67  77 SE3       29.96S

$$

INZ028-029-035-036-043>045-051>053-170400-
WEST CENTRAL INDIANA

CITY           SKY/WX    TMP DP  RH WIND       PRES   REMARKS
GREENCASTLE +  CLOUDY    75  72  88 CALM      29.96R
LAFAYETTE      MOCLDY    78  72  81 VRB3      29.91S
TERRE HAUTE    LGT RAIN  79  74  84 S15       29.94R

$$

INZ030>032-037>040-046>048-054>057-064-065-170400-
CENTRAL INDIANA

CITY           SKY/WX    TMP DP  RH WIND       PRES   REMARKS
CP ATTERBURY + MOCLDY    73  70  88 CALM      29.97S
FRANKFORT +    CLOUDY    78  74  85 CALM      29.96S
GREENWOOD *+   CLOUDY    78  69  74 S5        29.97S
INDIANAPOLIS   CLOUDY    79  71  76 S8        29.95R
-EAGLE CREEK   CLOUDY    81  70  69 MISG      29.95R
KOKOMO +       CLOUDY    76  72  87 S6        29.96R
MARION +       CLOUDY    75  70  83 SE5       29.96S
MT COMFORT *+  MOCLDY    77  72  83 S5        29.96F
SHELBYVILLE    MOCLDY    77  70  79 S7        29.96S
ZIONSVILLE +   CLOUDY    77  71  81 S7        29.96S

$$

INZ033-034-041-042-049-050-058-059-170400-
EAST CENTRAL INDIANA

CITY           SKY/WX    TMP DP  RH WIND       PRES   REMARKS
MUNCIE         CLOUDY    81  70  69 S5        29.96F
RICHMOND +     CLOUDY    72  70  94 SE6       30.00S FOG

$$

INZ060-061-067>069-081>083-085>088-170400-
SOUTHWEST INDIANA

CITY           SKY/WX    TMP DP  RH WIND       PRES   REMARKS
EVANSVILLE     CLOUDY    78  73  84 CALM      29.96R
WASHINGTON +   CLOUDY    78  75  91 MISG      29.95R

$$

INZ062-063-066-070>080-084-089>092-170400-
SOUTH CENTRAL AND SOUTHEAST INDIANA

CITY           SKY/WX    TMP DP  RH WIND       PRES   REMARKS
BEDFORD +      PTCLDY    77  70  78 S7        29.96S
BLOOMINGTON    CLOUDY    78  71  79 S5        29.96S
MADISON *+     CLOUDY    75  72  88 CALM      30.02R
NORTH VERNON + PTCLDY    75  72  88 CALM      29.99R
SEYMOUR +      PTCLDY    79  72  78 S5        29.97S

$$





USA.gov is the U.S. government's official web portal to all federal, state and local government web resources and services.